Montana Department of Transportation

Main Content

Accidents and Incidents Report

Hourly Weather Roundup

ASUS45 KTFX 250119
RWRMT 
MONTANA HOURLY WEATHER ROUNDUP
NATIONAL WEATHER SERVICE GREAT FALLS MT
719 PM MDT THU APR 24 2014

NOTE: "FAIR" INDICATES FEW OR NO CLOUDS BELOW 12000 FEET WITH NO
SIGNIFICANT WEATHER AND/OR OBSTRUCTIONS TO VISIBILITY.

* THESE STATIONS ARE NOT UNDER NWS QUALITY CONTROL. THEY DO NOT
   REPORT WEATHER SUCH AS PRECIPITATION OR FOG.

MTZ001.007-043-250200-
WEST OF THE DIVIDE
CITY           SKY/WX    TMP DP  RH WIND       PRES   REMARKS
KALISPELL      RAIN      45  43  93 CALM      29.80R 
MISSOULA       CLOUDY    46  39  77 SW3       29.87R 
BUTTE          MOCLDY    48  28  46 NW8       29.83R 
MULLAN PASS    FOG       32  32 100 SW9       29.81R VSB M1/4 WCI  24 
* ESSEX        N/A       42  38  86 NW2        N/A   
* LINCOLN      N/A       47  38  71 S7G14      N/A   
* LOOKOUT PASS N/A       38  37  96 S4G11      N/A   
* POLSON       N/A       45  40  83 S3G9       N/A   
* SEELEY LAKE  N/A       48  34  59 SW2G7      N/A   
* THOMP F APT  CLOUDY    40  37  89 N/A        N/A   
* YAAK HILL    N/A       50  44  80 E1         N/A   
--------------------------------

MTZ008-052.055-250200-
SOUTHWEST MONTANA
CITY           SKY/WX    TMP DP  RH WIND       PRES   REMARKS
BOZEMAN        CLOUDY    50  37  61 SW8       29.83R 
DILLON         MOCLDY    48  36  63 S12       29.84S 
W YELLOWSTONE  N/A       36  35  96 SW2G10     N/A   
* THREE FORKS  MOCLDY    54  39  57 SW8        N/A   
* BOULDER HILL N/A       45  28  51 N9         N/A   
* MONIDA PASS  N/A       42  33  71 S6G13      N/A   
* RAYNOLDS PAS N/A       35  16  46 SE16       N/A   WCI  25 
* WHITEHALL    N/A       57  32  39 SW7G16     N/A   
* WISE RIVER   N/A       46  33  61 SW14G22    N/A   
--------------------------------

MTZ009.010-012-014-046-048-049-054-250200-
EAST SLOPES AND CENTRAL MONTANA
CITY           SKY/WX    TMP DP  RH WIND       PRES   REMARKS
CUT BANK       MOCLDY    50  28  43 W20       29.72R 
GREAT FALLS    MOCLDY    54  28  37 W12       29.75R 
HELENA         FAIR      54  36  51 NW12      29.80R 
MALMSTROM AFB  MOCLDY    55  32  42 W7        29.72R 
* CONRAD       CLOUDY    54  30  40 W13        N/A   
* DEARBORN     N/A       54  32  43 S16G25     N/A   
* EAST GLACIER N/A       43  29  58 W15        N/A   
* MONARCH      N/A       47  22  37 SW15G20    N/A   
* PENDROY      N/A       50  28  43 W17        N/A   
* ROGERS PASS  N/A       42  31  65 E6G12      N/A   
* SAINT MARY   N/A       43  30  60 SW9G21     N/A   
* SWEET GRASS  N/A       54  26  34 NW15G24    N/A   
* WHITE SULPH  N/A       45  38  77 S4G12      N/A   
--------------------------------

MTZ011-013-016-021-035-040-045-047-050-051-250200-
NORTH CENTRAL MONTANA
CITY           SKY/WX    TMP DP  RH WIND       PRES   REMARKS
HAVRE          CLOUDY    57  32  39 W12       29.69R 
LEWISTOWN      CLOUDY    52  34  50 NW12G22   29.74R 
* CHINOOK      CLOUDY    57  32  39 W5        29.70R 
* FORT BENTON  MOCLDY    54  45  72 CALM      29.73R 
* MALTA APT    CLOUDY    55  32  42 S9        29.70R 
* CHESTER      N/A       56  29  36 W9G17      N/A   
* DENTON       N/A       49  35  59 NW9G17     N/A   
* GEYSER       N/A       51  31  46 W16G24     N/A   
* JUDITH GAP   N/A       49  29  46 W22        N/A   
* LOMA         N/A       54  39  57 SE4        N/A   
--------------------------------

MTZ017.020-022.027-061-062-250200-
NORTHEAST MONTANA
CITY           SKY/WX    TMP DP  RH WIND       PRES   REMARKS
GLASGOW        MOCLDY    57  27  32 W20       29.69R 
GLENDIVE       CLOUDY    57  23  27 W14       29.74R 
JORDAN         MOCLDY    55  30  39 W3        29.73S 
SIDNEY         PTCLDY    54  21  27 W6        29.73S 
WOLF POINT     MOCLDY    57  18  22 NW7       29.69F 
* BEAVER HILL  N/A       57  16  20 W15        N/A   
* CIRCLE       N/A       57  30  36 SW8G17     N/A   
* LINDSAY DVD  N/A       55  26  33 SW17G25    N/A   
* NAVAJO       N/A       54  27  35 VRB4G9     N/A   
* SACO         N/A58  28  32 SW20       N/A   
--------------------------------

MTZ028.042-056.058-250200-
SOUTHCENTRAL AND SOUTHEAST MONTANA
CITY           SKY/WX    TMP DP  RH WIND       PRES   REMARKS
BAKER          CLOUDY    55  23  29 NW10      29.74S 
BILLINGS       PTCLDY    59  28  31 W18       29.76R 
LIVINGSTON     MOCLDY    54  28  37 SW24G37   29.78R 
MILES CITY     CLOUDY    55  34  45 NW15      29.75R 
* LAUREL APT   PTCLDY    61  28  29 W14        N/A   
* ROUNDUP APT  PTCLDY    57  28  33 SW6        N/A   
* HYSHAM       N/A       55  29  37 W8         N/A   
* REED POINT   N/A       58  32  37 W20G28     N/A   
* ROSCOE HILL  N/A       52  20  28 S19G26     N/A   
--------------------------------

REGIONAL REPORTS...DAKOTAS
CITY           SKY/WX    TMP DP  RH WIND       PRES   REMARKS
WILLISTON      FAIR      55  25  31 NW8       29.70S 
DICKINSON      PTCLDY    55  21  27 NW9       29.71R 
CROSBY         N/A       52  32  47 N/A        N/A   
TIOGA          MOCLDY    54  25  33 NW9       29.73S 
WATFORD CITY   FAIR      52  27  38 NW3       29.70S 
BISMARCK       PTCLDY    57  27  32 N15G22    29.71R 
GRAND FORKS    FOG       43  39  86 E5        29.71S 
FARGO          MOCLDY    48  45  89 SE7       29.66F 
BUFFALO SD     CLOUDY    57  25  29 NW14      29.70S 
RAPID CITY     MOCLDY    55  30  39 NE6       29.78R 
--------------------------------

REGIONAL REPORTS...WYOMING/IDAHO/WASHINGTON
CITY           SKY/WX    TMP DP  RH WIND       PRES   REMARKS
GILLETTE       CLOUDY    55  25  31 NE8       29.77R 
SHERIDAN       MOCLDY    55  34  45 NE6       29.76R 
CODY           MOCLDY    50  27  41 W20G30    29.81R 
YELLOWSTONE LA CLOUDY    30  30 100 VRB3      29.95S 
SALMON         CLOUDY    48  41  77 CALM      29.83R 
MULLAN PASS    FOG       32  32 100 SW9       29.81S VSB M1/4 WCI  24 
SAND POINT     RAIN      45  45 100 N6        29.79S 
SPOKANE        PTCLDY    55  34  45 SW20      29.76S 
--------------------------------

REGIONAL REPORTS...ALBERTA
CITY           SKY/WX    TMP DP  RH WIND       PRES   REMARKS
CALGARY        MOCLDY    50  23  35 E14G21    29.64R 
LETHBRIDGE     MOCLDY    54  30  40 W24G32    29.65S 
MEDICINE HAT   CLOUDY    57  23  27 NW8       29.67R 
EDMONTON       MOCLDY    43  30  60 NE10      29.73R 
WATERTON GATE  N/A       46  30  54 SW15G22    N/A   
CARDSTON       N/A       50  32  50 SW9        N/A   
MILK RIVER     N/A       54  27  35 W14G20     N/A   
--------------------------------

REGIONAL REPORTS...SASKATCHEWAN
CITY           SKY/WX    TMP DP  RH WIND       PRES   REMARKS
SWIFT CURRENT  FAIR      52  28  40 N16       29.66R 
REGINA         FAIR      50  36  59 N13       29.68R 
VAL MARIE      N/A       55  21  27 W16        N/A   
ASSINIBOIA     N/A       54  23  30 NW14       N/A   
CORONACH       N/A       50  27  41 NW6        N/A   

--------------------------------